TimeCST,TemperatureF,Dew PointF,Humidity,Sea Level PressureIn,VisibilityMPH,Wind Direction,Wind SpeedMPH,Gust SpeedMPH,PrecipitationIn,Events,Conditions,WindDirDegrees,DateUTC
12:00 AM,-41,-48,49,30.49,15,Calm,Calm,,,Snow,Snow,,2013-02-21 06:00:00
12:00 AM,-41.8,-47.2,74,30.49,15.0,Calm,Calm,-,N/A,,Clear,0,2013-02-21 06:00:00
1:00 AM,-45.4,-9999,N/A,30.50,15.0,Calm,Calm,-,N/A,,Clear,0,2013-02-21 07:00:00
2:00 AM,-43.6,-9999,N/A,30.51,15.0,Calm,Calm,-,N/A,,Clear,0,2013-02-21 08:00:00
3:00 AM,-40.0,-47.2,67,30.50,15.0,SSW,2.3,-,N/A,,Clear,200,2013-02-21 09:00:00
4:00 AM,-41.8,-9999,N/A,30.51,10.0,SE,4.6,-,N/A,,Clear,130,2013-02-21 10:00:00
5:00 AM,-40.0,-47.2,67,30.50,15.0,SE,2.3,-,N/A,,Clear,140,2013-02-21 11:00:00
6:00 AM,-41,-49,45,30.50,15,Calm,Calm,,,Snow,Snow,,2013-02-21 12:00:00
6:00 AM,-40.0,-49.0,60,30.50,15.0,Calm,Calm,-,N/A,,Clear,0,2013-02-21 12:00:00
7:00 AM,-40.0,-47.2,67,30.50,15.0,Calm,Calm,-,N/A,,Partly Cloudy,0,2013-02-21 13:00:00
8:00 AM,-38.2,-47.2,61,30.49,9.0,Calm,Calm,-,N/A,,Partly Cloudy,0,2013-02-21 14:00:00
9:00 AM,-38.2,-45.4,67,30.48,8.0,WNW,2.3,-,N/A,,Partly Cloudy,300,2013-02-21 15:00:00
10:00 AM,-36.4,-47.2,55,30.48,6.0,Calm,Calm,-,N/A,,Ice Crystals,0,2013-02-21 16:00:00
11:00 AM,-36.4,-47.2,55,30.47,10.0,South,2.3,-,N/A,,Partly Cloudy,180,2013-02-21 17:00:00
12:00 PM,-29,-42,30,30.45,15,SE,10.4,,,Snow,Snow,130,2013-02-21 18:00:00
12:00 PM,-29.2,-41.8,51,30.45,15.0,SE,10.4,-,N/A,,Partly Cloudy,130,2013-02-21 18:00:00
1:00 PM,-23.8,-32.8,63,30.43,15.0,SE,18.4,-,N/A,,Mostly Cloudy,130,2013-02-21 19:00:00
2:00 PM,-23.8,-31.0,69,30.42,8.0,SE,19.6,-,N/A,Snow,Low Drifting Snow,130,2013-02-21 20:00:00
3:00 PM,-22.0,-31.0,63,30.40,3.0,East,19.6,-,N/A,Snow,Ice Crystals,90,2013-02-21 21:00:00
3:38 PM,-9999,-9999,N/A,-9999,0.5,East,20.7,-,N/A,,Ice Crystals,90,2013-02-21 21:38:00
4:00 PM,-23.8,-31.0,69,30.40,0.5,East,26.5,34.5,N/A,Snow,Ice Crystals,90,2013-02-21 22:00:00
5:00 PM,-22.0,-29.2,69,30.39,0.5,ESE,27.6,33.4,N/A,Snow,Ice Crystals,120,2013-02-21 23:00:00
5:20 PM,-9999,-9999,N/A,-9999,1.5,ESE,23.0,-,N/A,,Unknown,120,2013-02-21 23:20:00
5:55 PM,-9999,-9999,N/A,-9999,4.0,ESE,23.0,-,N/A,,Unknown,120,2013-02-21 23:55:00
6:00 PM,-21,-28,52,30.38,4,ESE,20.7,,,Snow,Light Snow,120,2013-02-22 00:00:00
6:00 PM,-20.2,-29.2,63,30.38,4.0,ESE,19.6,28.8,N/A,Snow,Light Snow,120,2013-02-22 00:00:00
6:30 PM,-9999,-9999,N/A,-9999,2.5,ESE,28.8,-,N/A,,Unknown,120,2013-02-22 00:30:00
7:00 PM,-20.2,-27.4,69,30.37,2.5,ESE,20.7,28.8,N/A,Snow,Light Snow,110,2013-02-22 01:00:00
7:11 PM,-9999,-9999,N/A,-9999,4.0,ESE,18.4,-,N/A,,Unknown,120,2013-02-22 01:11:00
8:00 PM,-20.2,-29.2,63,30.35,4.0,ESE,19.6,27.6,N/A,Snow,Light Snow,110,2013-02-22 02:00:00
9:00 PM,-20.2,-29.2,63,30.34,6.0,East,24.2,-,N/A,Snow,Light Snow,100,2013-02-22 03:00:00
9:46 PM,-9999,-9999,N/A,-9999,3.0,ESE,23.0,-,N/A,,Unknown,110,2013-02-22 03:46:00
10:00 PM,-18.4,-25.6,70,30.32,3.0,East,19.6,26.5,N/A,Snow,Light Snow,100,2013-02-22 04:00:00
10:20 PM,-9999,-9999,N/A,-9999,6.0,East,17.3,-,N/A,,Unknown,100,2013-02-22 04:20:00
11:00 PM,-16.6,-25.6,64,30.31,2.0,ESE,23.0,28.8,N/A,Snow,Light Snow,110,2013-02-22 05:00:00